Flag for Canada Weather past 2 weeks in Clarington, Ontario, Canada

Now
23 °F

Sunny.


Feels Like: 13 °F
Forecast: 5 / 23 °F
Wind: 9 mph from West

Location: Peterborough Airport

Current Time: Feb 28, 2015 at 3:11:14 PM

Latest Report: Feb 28, 2015 at 2:00 PM


Visibility: 9 mi

Pressure: 30.73 "Hg

Humidity: 50%

Dew point: 7 °F

Location of ClaringtonLocation

Historic Weather in Clarington — Graph

°F

Clarington temperature yesterday

Maximum temperature yesterday: 12 °F (at 1:00 PM)
Minimum temperature yesterday: -18 °F (at 7:00 AM)
Average temperature yesterday: -1 °F

Past Weeks' High & Low Weather Summary

 TemperatureHumidityPressure
High25 °F (Feb 22, 2:53 PM)100% (Feb 21, 7:00 PM)30.77 "Hg (Feb 21, 7:00 PM)
Low-18 °F (Feb 16, 8:00 AM)25% (Feb 16, 3:00 PM)29.56 "Hg (Feb 14, 10:00 AM)
Average2 °F70%30.11 "Hg
* Reported Feb 13 2:00 PM — Feb 28 2:00 PM, Clarington, Weather by CustomWeather, © 2015

Note: Actual official high and low records may vary slightly from our data, if they occured in-between our weather recording intervals... More about our weather records

Advertising

Clarington weather history for previous 24 hours

 ConditionsComfort  
Time TempWeatherWind HumidityBarometerVisibility
2:00 PM
Sat, Feb 28
23 °FSunny.9 mph50%30.73 "Hg9 mi
1:00 PM21 °FSunny.9 mph54%30.74 "Hg9 mi
12:00 PM19 °FSunny.12 mph53%30.76 "Hg9 mi
11:00 AM18 °FSunny.10 mph58%30.76 "Hg9 mi
10:00 AM14 °FSunny.10 mph62%30.77 "Hg9 mi
9:00 AM0 °FSunny.2 mph78%30.77 "Hg9 mi
8:00 AM-13 °FSunny.No wind83%30.76 "Hg9 mi
7:00 AM-15 °FSunny.No wind76%30.74 "Hg9 mi
6:00 AM-17 °FClear.No wind76%30.72 "Hg9 mi
5:00 AM-17 °FClear.No wind76%30.70 "Hg9 mi
4:00 AM-15 °FClear.No wind76%30.67 "Hg9 mi
3:00 AM-13 °FClear.No wind69%30.67 "Hg9 mi
2:00 AM-13 °FClear.3 mph76%30.67 "Hg9 mi
1:00 AM-11 °FClear.No wind76%30.67 "Hg9 mi
12:00 AM-9 °FClear.2 mph84%30.66 "Hg9 mi
11:00 PM
Fri, Feb 27
-8 °FClear.3 mph84%30.64 "Hg9 mi
10:00 PM-8 °FClear.5 mph84%30.64 "Hg9 mi
9:00 PM-6 °FClear.5 mph77%30.61 "Hg9 mi
8:00 PM-4 °FClear.2 mph84%30.60 "Hg9 mi
7:00 PM3 °FClear.2 mph72%30.58 "Hg9 mi
6:00 PM9 °FClear.6 mph61%30.55 "Hg9 mi
5:00 PM12 °FSunny.14 mph57%30.53 "Hg9 mi
4:00 PM12 °FSunny.16 mph57%30.52 "Hg9 mi
3:00 PM12 °FSunny.13 mph57%30.50 "Hg9 mi
Weather by CustomWeather, © 2015

See weather overviewHow to use our weather pages